Location: Songkhla
(7.2000°N, 100.6000°E)
Time: 03:30:20
(UTC+07:00)

BRICSAT 2 - Pass Details

Date: 17 June 2021
Orbit: 295 x 638 km, 28.5° (Epoch: 28 July)

Event Time Altitude Azimuth Distance (km) Brightness Sun altitude
Rises 21:54:09 0° 312° (NW) 2,835 ? -43.3°
Enters shadow 21:55:31 - 316° (NW) 2,338 ? -43.5°
Reaches altitude 10° 21:56:34 10° 321° (NW) 1,977 - -43.7°
Maximum altitude 22:00:52 36° 27° (NNE) 1,025 - -44.5°
Drops below altitude 10° 22:05:20 10° 94° (E) 2,058 - -45.3°
Sets 22:07:54 0° 102° (ESE) 2,969 - -45.8°
